Weather History for Burlington, WI

Change the Weather History Date:

Monday, October 8, 2012

  Actual Average (KENW) Record (KENW)
Temperature  
Mean Temperature 42 °F -  
Max Temperature 59 °F 63 °F 86 °F (2007)
Min Temperature 24 °F 44 °F 28 °F (2000)
Degree Days  
Heating Degree Days 24    
Moisture  
Dew Point 26 °F    
Average Humidity 54    
Maximum Humidity 86    
Minimum Humidity 29    
Precipitation  
Precipitation 0.00 in - - ()
Sea Level Pressure  
Sea Level Pressure 30.03 in    
Wind  
Wind Speed 8 mph (SSW)    
Max Wind Speed 24 mph    
Max Gust Speed 31 mph    
Visibility 10 miles    
Events      
Averages and records for this station are not official NWS values.
T = Trace of Precipitation, MM = Missing Value Source: NWS Daily Summary

Daily Weather History Graph

Daily Weather History Graph

Search for Another Location

Airport:

Trip Planner

Search our weather history database for the weather conditions in past years. The results will help you decide how hot, cold, wet, or windy it might be!

Date:

Astronomy

Oct. 08, 2012 Rise Set
Actual Time 6:58 AM CDT 6:21 PM CDT
Civil Twilight 6:30 AM CDT 6:49 PM CDT
Nautical Twilight 5:57 AM CDT 7:22 PM CDT
Astronomical Twilight 5:25 AM CDT 7:55 PM CDT
Moon No Moon Rise 2:19 PM CDT (10/8)
Length of Visible Light 12h 19m
Length of Day
11h 22m
Last Quarter, 46% of the Moon is Illuminated
Oct 8
Last Quarter
Oct 15
New
Oct 21
First Quarter
Oct 29
Full
Nov 6
Last Quarter

Hourly Weather History & Observations

Time (CDT) Temp. Windchill Dew Point Humidity Pressure Visibility Wind Dir Wind Speed Gust Speed Precip Events Conditions
12:15 AM 26.6 °F 21.2 °F 21.2 °F 80% 30.11 in 10.0 mi SSW 4.6 mph - N/A   Clear
12:35 AM 26.6 °F 21.2 °F 21.2 °F 80% 30.10 in 10.0 mi South 4.6 mph - N/A   Clear
12:55 AM 28.4 °F 24.6 °F 23.0 °F 80% 30.10 in 10.0 mi SSW 3.5 mph - N/A   Clear
1:15 AM 26.6 °F - 21.2 °F 80% 30.10 in 10.0 mi Calm Calm - N/A   Clear
1:35 AM 26.6 °F - 21.2 °F 80% 30.10 in 10.0 mi Calm Calm - N/A   Clear
1:55 AM 26.6 °F 22.6 °F 21.2 °F 80% 30.10 in 10.0 mi South 3.5 mph - N/A   Clear
2:15 AM 26.6 °F 21.2 °F 21.2 °F 80% 30.10 in 10.0 mi SSW 4.6 mph - N/A   Clear
2:35 AM 24.8 °F 19.1 °F 21.2 °F 86% 30.10 in 10.0 mi SSW 4.6 mph - N/A   Clear
2:55 AM 26.6 °F 22.6 °F 21.2 °F 80% 30.09 in 10.0 mi SSW 3.5 mph - N/A   Clear
3:15 AM 26.6 °F 22.6 °F 21.2 °F 80% 30.09 in 10.0 mi SW 3.5 mph - N/A   Clear
3:35 AM 24.8 °F 20.5 °F 21.2 °F 86% 30.09 in 10.0 mi South 3.5 mph - N/A   Clear
3:55 AM 26.6 °F 22.6 °F 21.2 °F 80% 30.09 in 10.0 mi SSW 3.5 mph - N/A   Clear
4:15 AM 26.6 °F - 21.2 °F 80% 30.09 in 10.0 mi Calm Calm - N/A   Clear
4:55 AM 26.6 °F 21.2 °F 21.2 °F 80% 30.09 in 10.0 mi SW 4.6 mph - N/A   Clear
5:15 AM 26.6 °F 20.0 °F 21.2 °F 80% 30.09 in 10.0 mi SSW 5.8 mph - N/A   Clear
5:35 AM 30.2 °F 23.4 °F 23.0 °F 75% 30.08 in 10.0 mi South 6.9 mph - N/A   Clear
5:55 AM 32.0 °F 27.5 °F 23.0 °F 69% 30.09 in 10.0 mi South 4.6 mph - N/A   Clear
6:15 AM 32.0 °F 26.4 °F 23.0 °F 69% 30.09 in 10.0 mi South 5.8 mph - N/A   Clear
6:35 AM 32.0 °F 26.4 °F 23.0 °F 69% 30.09 in 10.0 mi SSW 5.8 mph - N/A   Clear
6:55 AM 32.0 °F 25.6 °F 23.0 °F 69% 30.09 in 10.0 mi South 6.9 mph - N/A   Clear
7:15 AM 32.0 °F 24.8 °F 23.0 °F 69% 30.09 in 10.0 mi South 8.1 mph - N/A   Clear
7:35 AM 32.0 °F 25.6 °F 24.8 °F 75% 30.09 in 10.0 mi South 6.9 mph - N/A   Clear
7:55 AM 33.8 °F 27.7 °F 24.8 °F 70% 30.09 in 10.0 mi SSW 6.9 mph - N/A   Clear
8:15 AM 35.6 °F 29.9 °F 26.6 °F 70% 30.09 in 10.0 mi SSW 6.9 mph - N/A   Clear
8:35 AM 37.4 °F 31.4 °F 26.6 °F 65% 30.09 in 10.0 mi SSW 8.1 mph - N/A   Clear
8:55 AM 41.0 °F 34.7 °F 28.4 °F 61% 30.09 in 10.0 mi SSW 10.4 mph - N/A   Clear
9:15 AM 42.8 °F 37.5 °F 28.4 °F 57% 30.09 in 10.0 mi SSW 9.2 mph - N/A   Clear
9:55 AM 46.4 °F 40.7 °F 28.4 °F 50% 30.08 in 10.0 mi SSW 12.7 mph 18.4 mph N/A   Clear
10:15 AM 50.0 °F - 28.4 °F 43% 30.07 in 10.0 mi SSW 12.7 mph 23.0 mph N/A   Clear
10:35 AM 51.8 °F - 28.4 °F 41% 30.07 in 10.0 mi SSW 12.7 mph 21.9 mph N/A   Clear
10:55 AM 51.8 °F - 28.4 °F 41% 30.06 in 10.0 mi SSW 11.5 mph 24.2 mph N/A   Clear
11:15 AM 53.6 °F - 28.4 °F 38% 30.06 in 10.0 mi SSW 16.1 mph 21.9 mph N/A   Clear
11:35 AM 53.6 °F - 28.4 °F 38% 30.05 in 10.0 mi SSW 15.0 mph 26.5 mph N/A   Clear
11:55 AM 55.4 °F - 28.4 °F 36% 30.05 in 10.0 mi SW 19.6 mph 26.5 mph N/A   Clear
12:15 PM 55.4 °F - 28.4 °F 36% 30.04 in 10.0 mi SW 13.8 mph 25.3 mph N/A   Clear
12:35 PM 55.4 °F - 26.6 °F 33% 30.03 in 10.0 mi SW 19.6 mph 31.1 mph N/A   Clear
12:55 PM 55.4 °F - 26.6 °F 33% 30.02 in 10.0 mi SW 18.4 mph 26.5 mph N/A   Clear
1:15 PM 57.2 °F - 28.4 °F 33% 30.01 in 10.0 mi SSW 13.8 mph 24.2 mph N/A   Clear
1:35 PM 59.0 °F - 28.4 °F 31% 30.00 in 10.0 mi SW 16.1 mph 24.2 mph N/A   Clear
1:55 PM 59.0 °F - 28.4 °F 31% 29.99 in 10.0 mi SSW 15.0 mph 26.5 mph N/A   Clear
2:15 PM 59.0 °F - 26.6 °F 29% 29.98 in 10.0 mi SSW 18.4 mph 28.8 mph N/A   Clear
2:35 PM 59.0 °F - 28.4 °F 31% 29.97 in 10.0 mi SSW 16.1 mph 26.5 mph N/A   Clear
3:15 PM 59.0 °F - 28.4 °F 31% 29.96 in 10.0 mi SW 19.6 mph 28.8 mph N/A   Clear
3:35 PM 59.0 °F - 28.4 °F 31% 29.96 in 10.0 mi SSW 24.2 mph 31.1 mph N/A   Clear
3:55 PM 59.0 °F - 28.4 °F 31% 29.94 in 10.0 mi SSW 18.4 mph 27.6 mph N/A   Clear
4:15 PM 59.0 °F - 28.4 °F 31% 29.94 in 10.0 mi SSW 18.4 mph 27.6 mph N/A   Clear
4:35 PM 57.2 °F - 28.4 °F 33% 29.94 in 10.0 mi SSW 13.8 mph 25.3 mph N/A   Clear
4:55 PM 55.4 °F - 28.4 °F 36% 29.94 in 10.0 mi South 17.3 mph 25.3 mph N/A   Clear
5:15 PM 55.4 °F - 28.4 °F 36% 29.94 in 10.0 mi SSW 15.0 mph 24.2 mph N/A   Scattered Clouds
5:35 PM 53.6 °F - 28.4 °F 38% 29.94 in 10.0 mi SSW 15.0 mph 24.2 mph N/A   Clear
5:55 PM 53.6 °F - 28.4 °F 38% 29.94 in 10.0 mi South 13.8 mph 23.0 mph N/A   Clear
6:15 PM 53.6 °F - 28.4 °F 38% 29.94 in 10.0 mi South 15.0 mph - N/A   Clear
6:35 PM 53.6 °F - 28.4 °F 38% 29.95 in 10.0 mi South 11.5 mph 16.1 mph N/A   Clear
6:55 PM 51.8 °F - 28.4 °F 41% 29.95 in 10.0 mi South 11.5 mph 17.3 mph N/A   Clear
7:15 PM 51.8 °F - 28.4 °F 41% 29.94 in 7.0 mi South 13.8 mph 20.7 mph N/A   Clear
7:35 PM 51.8 °F - 28.4 °F 41% 29.94 in 7.0 mi South 11.5 mph 18.4 mph N/A   Clear
7:55 PM 51.8 °F - 28.4 °F 41% 29.95 in 10.0 mi South 9.2 mph 23.0 mph N/A   Clear
8:15 PM 51.8 °F - 28.4 °F 41% 29.95 in 10.0 mi South 11.5 mph 23.0 mph N/A   Clear
9:15 PM 50.0 °F - 30.2 °F 47% 29.96 in 10.0 mi SSW 12.7 mph 17.3 mph N/A   Clear
9:35 PM 50.0 °F - 30.2 °F 47% 29.96 in 10.0 mi SSW 10.4 mph 16.1 mph N/A   Clear
9:55 PM 50.0 °F - 30.2 °F 47% 29.95 in 10.0 mi South 10.4 mph 17.3 mph N/A   Clear
10:15 PM 48.2 °F - 30.2 °F 50% 29.96 in 10.0 mi SSW 11.5 mph 17.3 mph N/A   Clear
10:35 PM 50.0 °F - 30.2 °F 47% 29.96 in 10.0 mi SSW 13.8 mph 18.4 mph N/A   Scattered Clouds
10:55 PM 48.2 °F - 30.2 °F 50% 29.95 in 10.0 mi SSW 11.5 mph 19.6 mph N/A   Overcast
11:15 PM 48.2 °F - 32.0 °F 54% 29.95 in 10.0 mi South 10.4 mph 17.3 mph N/A   Overcast
11:35 PM 48.2 °F - 32.0 °F 54% 29.94 in 10.0 mi SSW 12.7 mph 18.4 mph N/A   Overcast
11:55 PM 48.2 °F - 32.0 °F 54% 29.94 in 10.0 mi SSW 10.4 mph 20.7 mph N/A   Mostly Cloudy